Mosby, MO

7:03 PM CST on December 14, 2019 (GMT -0600)
Clay County Regional

Weather History for KGPH - October, 2019

Change the Weather History Date:

Friday, October 11, 2019

  Actual Average (KMKC) Record (KMKC)
Temperature  
Mean Temperature 42 °F -  
Max Temperature 48 °F 67 °F 86 °F (2015)
Min Temperature 35 °F 47 °F 39 °F (2006)
Degree Days  
Heating Degree Days 24    
Moisture  
Dew Point 29 °F    
Average Humidity 62    
Maximum Humidity 87    
Minimum Humidity 37    
Precipitation  
Precipitation 0.00 in - - ()
Sea Level Pressure  
Sea Level Pressure 30.15 in    
Wind  
Wind Speed 11 mph ()    
Max Wind Speed 21 mph    
Max Gust Speed 26 mph    
Visibility 10.0 miles    
Events      
Averages and records for this station are not official NWS values.
T = Trace of Precipitation, MM = Missing Value Source: Averaged Metar Reports

Daily Weather History Graph

Daily Weather History Graph

Search for Another Location

Airport or City:

Astronomy

Oct. 11, 2019 Rise Set
Actual Time 7:22 AM CDT 6:44 PM CDT
Civil Twilight 6:55 AM CDT 7:11 PM CDT
Nautical Twilight 6:24 AM CDT 7:42 PM CDT
Astronomical Twilight 5:53 AM CDT 8:13 PM CDT
Moon 6:13 PM CDT (10/11) 5:05 AM CDT (10/11)
Length of Visible Light 12h 15m
Length of Day
11h 21m
Waxing Gibbous, 96% of the Moon is Illuminated
Oct 11
Waxing Gibbous
Oct 13
Full
Oct 21
Last Quarter
Oct 27
New
Nov 4
First Quarter

Hourly Weather History & Observations

Time (CDT) Temp. Windchill Dew Point Humidity Pressure Visibility Wind Dir Wind Speed Gust Speed Precip Events Conditions
12:15 AM 41.0 °F 34.3 °F 37.4 °F 87% 30.03 in 10.0 mi WNW 11.5 mph 20.7 mph N/A   Overcast
12:35 AM 42.8 °F 36.6 °F 37.4 °F 81% 30.03 in 10.0 mi WNW 11.5 mph - N/A   Overcast
12:55 AM 42.8 °F 35.4 °F 37.4 °F 81% 30.03 in 10.0 mi WNW 15.0 mph - N/A   Overcast
1:15 AM 41.0 °F 33.1 °F 37.4 °F 87% 30.03 in 10.0 mi NW 15.0 mph 20.7 mph N/A   Overcast
1:35 AM 41.0 °F 34.7 °F 35.6 °F 81% 30.02 in 10.0 mi NW 10.4 mph 18.4 mph N/A   Overcast
1:55 AM 41.0 °F 33.9 °F 35.6 °F 81% 30.02 in 10.0 mi NNW 12.7 mph - N/A   Overcast
2:15 AM 41.0 °F 34.3 °F 35.6 °F 81% 30.04 in 10.0 mi NNW 11.5 mph 16.1 mph N/A   Overcast
2:35 AM 41.0 °F 34.7 °F 35.6 °F 81% 30.05 in 10.0 mi NW 10.4 mph - N/A   Overcast
2:55 AM 41.0 °F 33.5 °F 33.8 °F 76% 30.05 in 10.0 mi NW 13.8 mph 18.4 mph N/A   Overcast
3:15 AM 41.0 °F 33.1 °F 33.8 °F 76% 30.05 in 10.0 mi NNW 15.0 mph 23.0 mph N/A   Overcast
3:35 AM 41.0 °F 33.1 °F 33.8 °F 76% 30.06 in 10.0 mi NNW 15.0 mph 21.9 mph N/A   Overcast
3:55 AM 41.0 °F 34.3 °F 32.0 °F 70% 30.06 in 10.0 mi NW 11.5 mph - N/A   Unknown
4:15 AM 41.0 °F 32.8 °F 32.0 °F 70% 30.08 in 10.0 mi WNW 16.1 mph 24.2 mph N/A   Unknown
4:35 AM 41.0 °F 33.1 °F 32.0 °F 70% 30.07 in 10.0 mi WNW 15.0 mph 25.3 mph N/A   Overcast
4:55 AM 41.0 °F 36.4 °F 32.0 °F 70% 30.09 in 10.0 mi NW 6.9 mph - N/A   Overcast
5:35 AM 41.0 °F 33.5 °F 32.0 °F 70% 30.08 in 10.0 mi NW 13.8 mph 23.0 mph N/A   Overcast
5:55 AM 41.0 °F 33.5 °F 32.0 °F 70% 30.09 in 10.0 mi NW 13.8 mph 19.6 mph N/A   Overcast
6:15 AM 41.0 °F 34.3 °F 32.0 °F 70% 30.09 in 10.0 mi WNW 11.5 mph 18.4 mph N/A   Overcast
6:35 AM 41.0 °F 33.9 °F 32.0 °F 70% 30.11 in 10.0 mi WNW 12.7 mph 20.7 mph N/A   Overcast
7:55 AM 39.2 °F 32.5 °F 30.2 °F 70% 30.14 in 10.0 mi NW 10.4 mph 24.2 mph N/A   Overcast
9:15 AM 37.4 °F 29.8 °F 28.4 °F 70% 30.17 in 10.0 mi WNW 11.5 mph 17.3 mph N/A   Overcast
9:55 AM 39.2 °F 30.5 °F 26.6 °F 61% 30.18 in 10.0 mi NNW 16.1 mph 21.9 mph N/A   Overcast
10:15 AM 39.2 °F 31.6 °F 28.4 °F 65% 30.19 in 10.0 mi WNW 12.7 mph 24.2 mph N/A   Overcast
10:35 AM 39.2 °F 30.8 °F 28.4 °F 65% 30.20 in 10.0 mi WNW 15.0 mph 24.2 mph N/A   Overcast
10:55 AM 41.0 °F 32.5 °F 26.6 °F 57% 30.20 in 10.0 mi NW 17.3 mph 25.3 mph N/A   Overcast
11:15 AM 41.0 °F 34.3 °F 26.6 °F 57% 30.20 in 10.0 mi NW 11.5 mph 19.6 mph N/A   Overcast
11:55 AM 41.0 °F 33.9 °F 28.4 °F 61% 30.20 in 10.0 mi WNW 12.7 mph 21.9 mph N/A   Overcast
12:15 PM 41.0 °F 31.6 °F 28.4 °F 61% 30.20 in 10.0 mi WNW 20.7 mph 25.3 mph N/A   Overcast
12:35 PM 41.0 °F 33.5 °F 26.6 °F 57% 30.20 in 10.0 mi WNW 13.8 mph 26.5 mph N/A   Mostly Cloudy
1:15 PM 42.8 °F 36.2 °F 26.6 °F 53% 30.20 in 10.0 mi NW 12.7 mph 24.2 mph N/A   Scattered Clouds
1:35 PM 44.6 °F 37.2 °F 28.4 °F 53% 30.19 in 10.0 mi WNW 17.3 mph 21.9 mph N/A   Mostly Cloudy
1:55 PM 44.6 °F 38.1 °F 26.6 °F 49% 30.19 in 10.0 mi West 13.8 mph 25.3 mph N/A   Mostly Cloudy
2:15 PM 44.6 °F 38.4 °F 24.8 °F 46% 30.19 in 10.0 mi WNW 12.7 mph 20.7 mph N/A   Scattered Clouds
2:55 PM 46.4 °F 41.5 °F 24.8 °F 43% 30.18 in 10.0 mi West 10.4 mph 19.6 mph N/A   Mostly Cloudy
3:15 PM 46.4 °F 40.1 °F 26.6 °F 46% 30.18 in 10.0 mi WNW 15.0 mph 21.9 mph N/A   Mostly Cloudy
3:35 PM 46.4 °F 40.1 °F 23.0 °F 40% 30.18 in 10.0 mi West 15.0 mph 24.2 mph N/A   Scattered Clouds
3:55 PM 46.4 °F 40.4 °F 23.0 °F 40% 30.18 in 10.0 mi West 13.8 mph 25.3 mph N/A   Scattered Clouds
4:15 PM 48.2 °F - 23.0 °F 37% 30.17 in 10.0 mi WNW 11.5 mph 23.0 mph N/A   Scattered Clouds
4:35 PM 48.2 °F - 23.0 °F 37% 30.17 in 10.0 mi NW 16.1 mph 26.5 mph N/A   Scattered Clouds
4:55 PM 46.4 °F 41.1 °F 21.2 °F 37% 30.18 in 10.0 mi WNW 11.5 mph 25.3 mph N/A   Clear
5:15 PM 46.4 °F 40.7 °F 21.2 °F 37% 30.18 in 10.0 mi WNW 12.7 mph 20.7 mph N/A   Clear
5:35 PM 46.4 °F 39.8 °F 21.2 °F 37% 30.19 in 10.0 mi WNW 16.1 mph 24.2 mph N/A   Unknown
6:15 PM 46.4 °F 40.7 °F 21.2 °F 37% 30.20 in 10.0 mi WNW 12.7 mph 19.6 mph N/A   Clear
6:35 PM 44.6 °F 38.4 °F 21.2 °F 39% 30.19 in 10.0 mi West 12.7 mph 17.3 mph N/A   Clear
6:55 PM 44.6 °F 39.2 °F 23.0 °F 43% 30.19 in 10.0 mi WNW 10.4 mph - N/A   Clear
7:55 PM 42.8 °F - 24.8 °F 49% 30.20 in 10.0 mi Calm Calm - N/A   Clear
8:15 PM 41.0 °F - 26.6 °F 57% 30.20 in 10.0 mi Calm Calm - N/A   Clear
8:35 PM 41.0 °F - 26.6 °F 57% 30.20 in 10.0 mi Calm Calm - N/A   Clear
8:55 PM 39.2 °F - 26.6 °F 61% 30.20 in 10.0 mi Calm Calm - N/A   Clear
9:15 PM 39.2 °F - 28.4 °F 65% 30.20 in 10.0 mi Calm Calm - N/A   Clear
9:35 PM 37.4 °F - 28.4 °F 70% 30.21 in 10.0 mi Calm Calm - N/A   Clear
9:55 PM 37.4 °F - 26.6 °F 65% 30.21 in 10.0 mi Calm Calm - N/A   Clear
10:35 PM 37.4 °F - 28.4 °F 70% 30.21 in 10.0 mi Calm Calm - N/A   Clear
10:55 PM 37.4 °F - 28.4 °F 70% 30.20 in 10.0 mi Calm Calm - N/A   Clear
11:15 PM 37.4 °F - 28.4 °F 70% 30.20 in 10.0 mi Calm Calm - N/A   Clear
11:35 PM 35.6 °F - 30.2 °F 81% 30.20 in 10.0 mi Calm Calm - N/A   Clear
11:55 PM 35.6 °F - 30.2 °F 81% 30.19 in 10.0 mi Calm Calm - N/A   Clear